Voltar ao catálogo

ION SCV-004

AtivoCiênciaSSO
NORAD 50993·PAYLOAD·🇮🇹 Italy

Lançado Jan 13, 2022 de Cape Canaveral Space Force Station

Loading…

Próximas Passagens (próximas 24 horas)

TLE

AtualizadoSource: Space-Track

Época: Sep 13, 2026, 17:45 UTC

1 50993U 22002K   26256.74010927  .00003483  00000-0  11801-3 0  9995
2 50993  97.2740 312.7355 0008318  48.5271 311.6683 15.31198247258846

Acompanhe ION SCV-004 em tempo real com AllMySat

Download on the App Store